Location: Unspecified
(43.4354°N, 0.0000°E)
Time: 10:24:29
(UTC+00:00)

A-11 Canister half - Pass Details

Date: 22 June 2019
Orbit: 1514 x 1685 km, 47.2° (Epoch: 19 July)

Event Time Altitude Azimuth Distance (km) Brightness Sun altitude
Rises 15:37:12 0° 292° (WNW) 4,812 12.3 41.8°
Reaches altitude 10° 15:40:21 10° 292° (WNW) 3,802 12.0 41.3°
Maximum altitude 15:49:59 83° 206° (SSW) 1,564 9.9 39.5°
Drops below altitude 10° 15:59:17 10° 120° (ESE) 3,682 10.7 37.8°
Sets 16:02:17 0° 120° (ESE) 4,654 11.1 37.3°
